Location: Jackson Park
(37.2862°N, 79.9123°W)
Time: 21:39:39
(UTC+00:00)

Transit 4A - Pass Details

Date: 10 May 2026
Orbit: 860 x 980 km, 66.8° (Epoch: 9 June)

Event Time Altitude Azimuth Distance (km) Brightness Sun altitude
Rises 01:35:48 0° 307° (NW) 3,685 13.0 -14.5°
Reaches altitude 10° 01:41:08 10° 270° (W) 2,721 11.1 -15.4°
Maximum altitude 01:42:13 10° 260° (W) 2,683 10.9 -15.6°
Drops below altitude 10° 01:43:18 10° 250° (WSW) 2,711 10.8 -15.7°
Sets 01:48:35 0° 213° (SSW) 3,626 10.9 -16.6°
